| time (UTC) | temp F | wind direction | speed knots | gust knots | rain 1hr in | rain 24hr in | rain mn in | humidity % | barometer mb |
| 20260506222020 | 57 | 293 | 0.9 | 3.5 | 0.15 | 0.74 | 0.05 | 92 | 1008.1 |
| 20260506221540 | 57 | 302 | 0.9 | 3.5 | 0.15 | 0.74 | 0.05 | 92 | 1007.9 |
| 20260506221040 | 57 | 274 | 0.0 | 1.7 | 0.14 | 0.73 | 0.04 | 92 | 1007.7 |
| 20260506220542 | 57 | 304 | 0.9 | 2.6 | 0.14 | 0.71 | 0.02 | 92 | 1007.7 |
| 20260506220017 | 57 | 292 | 0.9 | 2.6 | 0.13 | 0.70 | 0.01 | 91 | 1007.5 |
| 20260506215517 | 57 | 312 | 0.9 | 3.5 | 0.13 | 0.69 | 0.69 | 91 | 1007.5 |
| 20260506215017 | 57 | 288 | 0.9 | 2.6 | 0.13 | 0.68 | 0.68 | 91 | 1007.7 |
| 20260506214518 | 57 | 272 | 0.0 | 1.7 | 0.13 | 0.67 | 0.67 | 91 | 1007.2 |
| 20260506214017 | 57 | 248 | 0.0 | 0.9 | 0.07 | 0.62 | 0.62 | 91 | 1007.3 |
| 20260506213521 | 57 | 252 | 0.0 | 0.9 | 0.06 | 0.60 | 0.60 | 91 | 1007.2 |
| 20260506213021 | 57 | 183 | 0.0 | 2.6 | 0.05 | 0.59 | 0.59 | 91 | 1006.9 |
| 20260506212521 | 57 | 107 | 0.0 | 1.7 | 0.06 | 0.59 | 0.59 | 91 | 1007.0 |
| 20260506212021 | 57 | 74 | 0.0 | 2.6 | 0.06 | 0.59 | 0.59 | 91 | 1007.1 |
| 20260506211539 | 57 | 155 | 0.0 | 0.9 | 0.06 | 0.59 | 0.59 | 91 | 1007.3 |
| 20260506211019 | 57 | 133 | 0.9 | 1.7 | 0.06 | 0.59 | 0.59 | 91 | 1007.3 |
| 20260506210538 | 57 | 147 | 0.0 | 1.7 | 0.04 | 0.57 | 0.57 | 91 | 1007.3 |
| 20260506210018 | 57 | 140 | 0.0 | 1.7 | 0.03 | 0.57 | 0.57 | 91 | 1007.3 |
| 20260506205538 | 57 | 156 | 0.0 | 0.9 | 0.03 | 0.56 | 0.56 | 91 | 1007.3 |
| 20260506205018 | 57 | 177 | 0.0 | 0.9 | 0.04 | 0.55 | 0.55 | 90 | 1007.5 |
| 20260506204539 | 57 | 161 | 0.9 | 2.6 | 0.06 | 0.54 | 0.54 | 90 | 1007.7 |
| 20260506204018 | 57 | 171 | 1.7 | 3.5 | 0.06 | 0.54 | 0.54 | 90 | 1007.7 |
| 20260506203519 | 57 | 177 | 0.9 | 3.5 | 0.08 | 0.54 | 0.54 | 90 | 1007.7 |
| 20260506203019 | 57 | 209 | 0.0 | 0.9 | 0.13 | 0.54 | 0.54 | 90 | 1007.5 |
| 20260506202519 | 57 | 178 | 0.9 | 1.7 | 0.15 | 0.54 | 0.54 | 90 | 1007.4 |
| 20260506202040 | 57 | 173 | 0.9 | 1.7 | 0.17 | 0.54 | 0.54 | 90 | 1007.3 |
| 20260506201521 | 57 | 166 | 0.0 | 0.9 | 0.17 | 0.54 | 0.54 | 90 | 1007.1 |
| 20260506201019 | 57 | 215 | 0.0 | 0.9 | 0.18 | 0.54 | 0.54 | 90 | 1007.0 |
| 20260506200519 | 57 | 190 | 0.0 | 0.9 | 0.19 | 0.54 | 0.54 | 90 | 1007.0 |
| 20260506200017 | 57 | 0.0 | 0.0 | 0.20 | 0.54 | 0.54 | 90 | 1007.3 | |
| 20260506195519 | 57 | 301 | 0.9 | 2.6 | 0.20 | 0.53 | 0.53 | 90 | 1007.6 |
| 20260506195019 | 57 | 284 | 0.9 | 2.6 | 0.19 | 0.50 | 0.50 | 90 | 1007.8 |
| 20260506194637 | 57 | 250 | 0.0 | 1.7 | 0.20 | 0.49 | 0.49 | 90 | 1007.9 |
| 20260506194017 | 57 | 293 | 1.7 | 4.3 | 0.22 | 0.48 | 0.48 | 90 | 1007.7 |
| 20260506193519 | 58 | 298 | 1.7 | 3.5 | 0.22 | 0.46 | 0.46 | 89 | 1007.7 |
| 20260506193017 | 58 | 293 | 2.6 | 4.3 | 0.21 | 0.41 | 0.41 | 89 | 1007.7 |
| 20260506192520 | 58 | 299 | 0.9 | 3.5 | 0.22 | 0.39 | 0.39 | 89 | 1007.4 |
| 20260506192020 | 58 | 284 | 0.0 | 1.7 | 0.22 | 0.36 | 0.36 | 88 | 1007.4 |
| 20260506191520 | 58 | 285 | 0.9 | 1.7 | 0.25 | 0.36 | 0.36 | 88 | 1007.3 |
| 20260506191023 | 57 | 235 | 0.0 | 0.9 | 0.28 | 0.36 | 0.36 | 87 | 1007.2 |
| 20260506190522 | 58 | 0.0 | 0.0 | 0.28 | 0.35 | 0.35 | 87 | 1007.2 | |
| 20260506190020 | 58 | 0.0 | 0.0 | 0.27 | 0.34 | 0.34 | 86 | 1007.0 | |
| 20260506185520 | 58 | 0.0 | 0.0 | 0.27 | 0.33 | 0.33 | 86 | 1007.0 | |
| 20260506185021 | 58 | 144 | 0.0 | 1.7 | 0.25 | 0.31 | 0.31 | 86 | 1007.0 |
| 20260506184520 | 58 | 166 | 0.9 | 2.6 | 0.24 | 0.29 | 0.29 | 86 | 1007.0 |
| 20260506184020 | 58 | 169 | 1.7 | 3.5 | 0.22 | 0.27 | 0.27 | 86 | 1007.1 |
| 20260506183518 | 58 | 168 | 2.6 | 6.1 | 0.19 | 0.24 | 0.24 | 86 | 1007.1 |
| 20260506183018 | 59 | 172 | 1.7 | 5.2 | 0.15 | 0.21 | 0.20 | 85 | 1006.9 |
| 20260506182541 | 59 | 203 | 0.9 | 2.6 | 0.12 | 0.17 | 0.17 | 85 | 1006.8 |
| 20260506182041 | 59 | 236 | 0.9 | 2.6 | 0.09 | 0.15 | 0.14 | 84 | 1006.7 |
| 20260506181522 | 59 | 236 | 0.9 | 1.7 | 0.06 | 0.11 | 0.11 | 83 | 1006.5 |
| 20260506181038 | 59 | 197 | 0.9 | 3.5 | 0.03 | 0.09 | 0.08 | 82 | 1006.3 |
| 20260506180540 | 60 | 194 | 1.7 | 4.3 | 0.03 | 0.08 | 0.07 | 81 | 1006.3 |
| 20260506180038 | 61 | 173 | 2.6 | 6.1 | 0.02 | 0.07 | 0.06 | 79 | 1006.2 |
| 20260506175528 | 61 | 170 | 2.6 | 5.2 | 0.03 | 0.06 | 0.06 | 78 | 1006.2 |
| 20260506175019 | 62 | 170 | 2.6 | 6.1 | 0.04 | 0.06 | 0.06 | 77 | 1006.2 |
| 20260506174519 | 62 | 166 | 1.7 | 7.8 | 0.04 | 0.06 | 0.05 | 78 | 1006.4 |
| 20260506174021 | 62 | 158 | 1.7 | 4.3 | 0.04 | 0.06 | 0.05 | 78 | 1006.1 |
| 20260506173521 | 62 | 153 | 0.9 | 2.6 | 0.04 | 0.06 | 0.05 | 80 | 1005.8 |
| 20260506173018 | 62 | 0.0 | 0.0 | 0.04 | 0.06 | 0.05 | 79 | 1005.6 | |
| 20260506172539 | 62 | 308 | 0.0 | 0.9 | 0.04 | 0.06 | 0.05 | 79 | 1005.5 |
| 20260506172041 | 62 | 119 | 0.0 | 0.9 | 0.04 | 0.06 | 0.05 | 78 | 1005.3 |
| 20260506171518 | 62 | 121 | 0.0 | 0.9 | 0.04 | 0.06 | 0.05 | 76 | 1005.2 |
| 20260506171019 | 63 | 300 | 0.0 | 0.9 | 0.04 | 0.05 | 0.05 | 75 | 1005.2 |
| 20260506170519 | 63 | 157 | 0.9 | 2.6 | 0.03 | 0.05 | 0.04 | 74 | 1005.3 |
| 20260506170020 | 64 | 158 | 1.7 | 3.5 | 0.03 | 0.05 | 0.04 | 73 | 1005.3 |
| 20260506165520 | 65 | 158 | 2.6 | 7.8 | 0.02 | 0.04 | 0.03 | 69 | 1005.3 |
| 20260506165022 | 67 | 170 | 1.7 | 7.0 | 0.01 | 0.02 | 0.01 | 66 | 1005.2 |
| 20260506164520 | 69 | 165 | 3.5 | 8.7 | 0.00 | 0.02 | 0.01 | 61 | 1005.3 |
| 20260506164017 | 71 | 187 | 3.5 | 7.8 | 0.00 | 0.02 | 0.01 | 53 | 1005.3 |
| 20260506163517 | 73 | 190 | 2.6 | 7.0 | 0.00 | 0.01 | 0.01 | 48 | 1005.2 |
| 20260506163017 | 73 | 237 | 1.7 | 6.1 | 0.00 | 0.01 | 0.01 | 44 | 1004.9 |
| 20260506162517 | 73 | 223 | 1.7 | 4.3 | 0.00 | 0.01 | 0.01 | 43 | 1004.8 |
| 20260506162017 | 73 | 294 | 0.9 | 3.5 | 0.00 | 0.01 | 0.01 | 43 | 1004.8 |
| 20260506161517 | 73 | 243 | 0.9 | 2.6 | 0.00 | 0.01 | 0.01 | 43 | 1004.8 |
| 20260506161020 | 74 | 293 | 0.9 | 2.6 | 0.00 | 0.01 | 0.01 | 43 | 1004.8 |
| 20260506160520 | 74 | 161 | 0.9 | 2.6 | 0.00 | 0.01 | 0.01 | 43 | 1004.8 |
| 20260506160020 | 74 | 211 | 0.9 | 2.6 | 0.00 | 0.01 | 0.01 | 42 | 1004.9 |
| 20260506155520 | 75 | 255 | 0.9 | 3.5 | 0.00 | 0.01 | 0.01 | 41 | 1004.9 |
| 20260506155018 | 75 | 211 | 0.9 | 3.5 | 0.00 | 0.01 | 0.01 | 41 | 1004.9 |
| 20260506154518 | 76 | 172 | 1.7 | 4.3 | 0.00 | 0.01 | 0.01 | 40 | 1004.8 |
| 20260506154018 | 77 | 199 | 1.7 | 3.5 | 0.00 | 0.01 | 0.01 | 40 | 1004.8 |
| 20260506153518 | 77 | 215 | 1.7 | 4.3 | 0.00 | 0.01 | 0.01 | 39 | 1004.8 |
| 20260506153018 | 76 | 227 | 0.9 | 3.5 | 0.00 | 0.01 | 0.01 | 40 | 1004.8 |
| 20260506152518 | 75 | 254 | 1.7 | 3.5 | 0.00 | 0.01 | 0.01 | 40 | 1004.9 |
| 20260506152018 | 75 | 294 | 2.6 | 7.0 | 0.00 | 0.01 | 0.01 | 41 | 1004.9 |
| 20260506151518 | 76 | 270 | 2.6 | 6.1 | 0.00 | 0.01 | 0.01 | 41 | 1005.0 |
| 20260506151018 | 76 | 293 | 3.5 | 9.6 | 0.00 | 0.01 | 0.01 | 41 | 1005.1 |
| 20260506150519 | 76 | 288 | 1.7 | 5.2 | 0.00 | 0.01 | 0.01 | 40 | 1005.1 |
| 20260506150039 | 76 | 290 | 1.7 | 4.3 | 0.00 | 0.01 | 0.01 | 41 | 1005.1 |
| 20260506145518 | 75 | 291 | 2.6 | 7.0 | 0.00 | 0.01 | 0.01 | 41 | 1005.1 |
| 20260506145019 | 75 | 278 | 1.7 | 6.1 | 0.00 | 0.01 | 0.01 | 42 | 1005.1 |
| 20260506144519 | 75 | 218 | 2.6 | 7.0 | 0.00 | 0.01 | 0.01 | 41 | 1005.2 |
| 20260506144019 | 75 | 248 | 1.7 | 6.1 | 0.00 | 0.01 | 0.01 | 41 | 1005.2 |
| 20260506143519 | 75 | 239 | 2.6 | 7.0 | 0.00 | 0.01 | 0.01 | 41 | 1005.3 |
| 20260506143019 | 75 | 255 | 2.6 | 7.0 | 0.00 | 0.01 | 0.01 | 42 | 1005.3 |
| 20260506142519 | 74 | 238 | 1.7 | 7.8 | 0.00 | 0.01 | 0.01 | 42 | 1005.4 |
| 20260506142017 | 73 | 269 | 1.7 | 7.0 | 0.00 | 0.01 | 0.01 | 44 | 1005.5 |
| 20260506141516 | 73 | 236 | 2.6 | 7.0 | 0.00 | 0.01 | 0.01 | 44 | 1005.6 |
| 20260506141019 | 73 | 264 | 2.6 | 6.1 | 0.00 | 0.01 | 0.01 | 45 | 1005.7 |
| 20260506140520 | 73 | 302 | 2.6 | 5.2 | 0.00 | 0.01 | 0.01 | 45 | 1005.7 |
| 20260506140020 | 73 | 302 | 2.6 | 6.1 | 0.00 | 0.01 | 0.01 | 45 | 1005.7 |
| 20260506135519 | 73 | 248 | 1.7 | 4.3 | 0.00 | 0.01 | 0.01 | 46 | 1005.8 |
| 20260506135020 | 73 | 256 | 2.6 | 7.8 | 0.00 | 0.01 | 0.01 | 45 | 1005.8 |
| 20260506134600 | 73 | 260 | 1.7 | 4.3 | 0.00 | 0.01 | 0.01 | 46 | 1005.9 |
| 20260506134018 | 73 | 267 | 2.6 | 6.1 | 0.00 | 0.01 | 0.01 | 45 | 1005.9 |
| 20260506133517 | 73 | 234 | 0.9 | 3.5 | 0.00 | 0.01 | 0.01 | 46 | 1005.9 |
| 20260506133017 | 73 | 246 | 2.6 | 7.8 | 0.00 | 0.01 | 0.01 | 46 | 1005.9 |
| 20260506132517 | 73 | 237 | 2.6 | 5.2 | 0.00 | 0.01 | 0.01 | 44 | 1005.8 |
| 20260506132037 | 74 | 252 | 2.6 | 5.2 | 0.00 | 0.01 | 0.01 | 43 | 1005.8 |
| 20260506131518 | 74 | 232 | 2.6 | 6.1 | 0.00 | 0.01 | 0.01 | 45 | 1005.9 |
| 20260506131022 | 74 | 238 | 3.5 | 7.8 | 0.00 | 0.01 | 0.01 | 46 | 1005.9 |
| 20260506130523 | 73 | 261 | 2.6 | 8.7 | 0.00 | 0.01 | 0.01 | 46 | 1005.9 |
| 20260506130019 | 73 | 216 | 2.6 | 6.1 | 0.00 | 0.01 | 0.01 | 47 | 1005.9 |
| 20260506125558 | 72 | 254 | 2.6 | 7.8 | 0.00 | 0.01 | 0.01 | 48 | 1006.0 |
| 20260506125018 | 71 | 250 | 2.6 | 6.1 | 0.00 | 0.01 | 0.01 | 49 | 1006.1 |
| 20260506124538 | 71 | 235 | 3.5 | 7.8 | 0.00 | 0.01 | 0.01 | 50 | 1006.1 |
| 20260506124018 | 71 | 216 | 2.6 | 7.0 | 0.00 | 0.01 | 0.01 | 50 | 1006.1 |
| 20260506123518 | 72 | 205 | 2.6 | 7.0 | 0.00 | 0.01 | 0.01 | 50 | 1006.1 |
| 20260506123018 | 72 | 176 | 3.5 | 7.0 | 0.00 | 0.01 | 0.01 | 50 | 1006.1 |
| 20260506122518 | 72 | 227 | 3.5 | 7.8 | 0.00 | 0.01 | 0.01 | 49 | 1006.1 |
| 20260506122019 | 71 | 218 | 3.5 | 8.7 | 0.00 | 0.01 | 0.01 | 50 | 1006.1 |
| 20260506121518 | 71 | 221 | 2.6 | 7.0 | 0.00 | 0.01 | 0.01 | 51 | 1006.0 |
| 20260506121018 | 71 | 221 | 2.6 | 7.8 | 0.00 | 0.01 | 0.01 | 51 | 1006.0 |
| 20260506120519 | 71 | 233 | 2.6 | 8.7 | 0.00 | 0.01 | 0.01 | 50 | 1006.0 |
| 20260506120039 | 71 | 199 | 2.6 | 6.1 | 0.00 | 0.01 | 0.01 | 51 | 1005.9 |
| 20260506115521 | 71 | 229 | 3.5 | 7.8 | 0.00 | 0.01 | 0.01 | 51 | 1006.0 |
| 20260506115019 | 71 | 207 | 2.6 | 7.8 | 0.00 | 0.01 | 0.01 | 51 | 1006.0 |
| 20260506114531 | 71 | 232 | 3.5 | 8.7 | 0.00 | 0.01 | 0.01 | 50 | 1006.1 |
| 20260506114019 | 71 | 239 | 3.5 | 7.8 | 0.00 | 0.01 | 0.01 | 50 | 1006.1 |
| 20260506113519 | 71 | 249 | 2.6 | 7.0 | 0.00 | 0.01 | 0.01 | 50 | 1006.1 |
| 20260506113019 | 72 | 214 | 3.5 | 7.8 | 0.00 | 0.01 | 0.01 | 50 | 1006.0 |
| 20260506112516 | 72 | 233 | 3.5 | 7.8 | 0.00 | 0.01 | 0.01 | 50 | 1006.0 |
| 20260506112037 | 71 | 213 | 1.7 | 6.1 | 0.00 | 0.01 | 0.01 | 50 | 1006.0 |
| 20260506111517 | 71 | 249 | 3.5 | 7.8 | 0.00 | 0.01 | 0.01 | 51 | 1006.0 |
| 20260506111020 | 71 | 235 | 3.5 | 12.2 | 0.00 | 0.01 | 0.01 | 51 | 1006.0 |
| 20260506110520 | 70 | 222 | 2.6 | 7.8 | 0.00 | 0.01 | 0.01 | 52 | 1006.0 |
| 20260506110020 | 70 | 213 | 2.6 | 7.0 | 0.00 | 0.01 | 0.01 | 53 | 1006.0 |
| 20260506105520 | 69 | 225 | 3.5 | 7.8 | 0.00 | 0.01 | 0.01 | 55 | 1006.1 |
| 20260506105020 | 69 | 195 | 2.6 | 9.6 | 0.00 | 0.01 | 0.01 | 55 | 1006.1 |
| 20260506104517 | 69 | 234 | 4.3 | 9.6 | 0.00 | 0.01 | 0.01 | 55 | 1006.1 |
| 20260506104017 | 69 | 242 | 3.5 | 7.8 | 0.00 | 0.01 | 0.01 | 54 | 1006.1 |
| 20260506103517 | 70 | 226 | 3.5 | 10.4 | 0.00 | 0.01 | 0.01 | 54 | 1006.0 |
| 20260506103018 | 70 | 222 | 2.6 | 7.8 | 0.00 | 0.01 | 0.01 | 53 | 1006.0 |
| 20260506102517 | 70 | 213 | 3.5 | 7.8 | 0.00 | 0.01 | 0.01 | 54 | 1005.9 |
| 20260506102017 | 70 | 236 | 3.5 | 10.4 | 0.00 | 0.01 | 0.01 | 54 | 1006.0 |
| 20260506101517 | 69 | 207 | 3.5 | 7.8 | 0.00 | 0.01 | 0.01 | 54 | 1006.0 |
| 20260506101021 | 69 | 245 | 3.5 | 9.6 | 0.00 | 0.01 | 0.01 | 55 | 1006.1 |
| 20260506100521 | 69 | 245 | 3.5 | 11.3 | 0.00 | 0.01 | 0.01 | 55 | 1006.1 |
| 20260506100038 | 69 | 230 | 2.6 | 8.7 | 0.00 | 0.01 | 0.01 | 55 | 1006.0 |
| 20260506095538 | 69 | 200 | 3.5 | 7.0 | 0.00 | 0.01 | 0.01 | 55 | 1005.9 |
| 20260506095040 | 69 | 203 | 2.6 | 8.7 | 0.00 | 0.01 | 0.01 | 55 | 1006.1 |
| 20260506094518 | 68 | 234 | 2.6 | 7.0 | 0.00 | 0.01 | 0.01 | 57 | 1006.2 |
| 20260506094018 | 67 | 173 | 2.6 | 6.1 | 0.00 | 0.01 | 0.01 | 58 | 1006.2 |
| 20260506093618 | 67 | 201 | 2.6 | 7.8 | 0.00 | 0.01 | 0.01 | 59 | 1006.2 |
| 20260506093018 | 67 | 247 | 2.6 | 7.8 | 0.00 | 0.01 | 0.01 | 60 | 1006.1 |
| 20260506092518 | 67 | 200 | 2.6 | 7.0 | 0.00 | 0.01 | 0.01 | 62 | 1006.1 |
| 20260506092018 | 66 | 177 | 2.6 | 7.0 | 0.00 | 0.01 | 0.01 | 62 | 1006.2 |
| 20260506091519 | 66 | 228 | 2.6 | 5.2 | 0.00 | 0.01 | 0.01 | 62 | 1006.2 |
| 20260506091021 | 66 | 233 | 3.5 | 6.1 | 0.00 | 0.01 | 0.01 | 63 | 1006.2 |
| 20260506090554 | 66 | 254 | 2.6 | 6.1 | 0.00 | 0.01 | 0.01 | 63 | 1006.1 |
| 20260506090019 | 67 | 231 | 2.6 | 6.1 | 0.00 | 0.01 | 0.01 | 63 | 1006.1 |
| 20260506085519 | 67 | 249 | 2.6 | 5.2 | 0.00 | 0.01 | 0.01 | 63 | 1006.1 |
| 20260506085019 | 67 | 222 | 1.7 | 4.3 | 0.00 | 0.01 | 0.01 | 63 | 1006.0 |
| 20260506084519 | 67 | 209 | 1.7 | 6.1 | 0.00 | 0.01 | 0.01 | 63 | 1006.0 |
| 20260506084019 | 67 | 259 | 2.6 | 7.8 | 0.00 | 0.01 | 0.01 | 63 | 1006.0 |
| 20260506083519 | 67 | 235 | 1.7 | 5.2 | 0.00 | 0.01 | 0.01 | 63 | 1006.0 |
| 20260506083020 | 66 | 206 | 2.6 | 6.1 | 0.00 | 0.01 | 0.01 | 64 | 1005.9 |
| 20260506082519 | 66 | 186 | 0.9 | 4.3 | 0.00 | 0.01 | 0.01 | 67 | 1006.0 |
| 20260506082019 | 65 | 213 | 0.9 | 6.1 | 0.00 | 0.01 | 0.01 | 69 | 1006.0 |
| 20260506081516 | 64 | 294 | 1.7 | 5.2 | 0.00 | 0.01 | 0.01 | 70 | 1006.0 |
| 20260506081021 | 64 | 301 | 0.9 | 3.5 | 0.00 | 0.01 | 0.01 | 71 | 1006.1 |
| 20260506080520 | 63 | 310 | 0.9 | 4.3 | 0.00 | 0.01 | 0.01 | 72 | 1006.1 |
| 20260506073517 | 63 | 309 | 2.6 | 7.0 | 0.00 | 0.01 | 0.01 | 72 | 1005.8 |
| 20260506073017 | 64 | 306 | 2.6 | 7.0 | 0.00 | 0.01 | 0.01 | 71 | 1005.8 |
| 20260506072518 | 64 | 312 | 1.7 | 4.3 | 0.00 | 0.01 | 0.01 | 71 | 1005.8 |
| 20260506072018 | 63 | 230 | 0.9 | 3.5 | 0.00 | 0.01 | 0.01 | 71 | 1005.8 |
| 20260506071518 | 62 | 224 | 0.9 | 3.5 | 0.00 | 0.01 | 0.01 | 73 | 1005.8 |
| 20260506071021 | 62 | 278 | 1.7 | 4.3 | 0.00 | 0.01 | 0.01 | 74 | 1005.7 |
| 20260506070521 | 61 | 281 | 0.9 | 2.6 | 0.00 | 0.01 | 0.01 | 75 | 1005.8 |
| 20260506062019 | 59 | 296 | 0.9 | 2.6 | 0.00 | 0.01 | 0.01 | 76 | 1005.6 |
| 20260506061519 | 59 | 201 | 0.9 | 3.5 | 0.00 | 0.01 | 0.01 | 76 | 1005.8 |
| 20260506061019 | 58 | 217 | 0.9 | 2.6 | 0.00 | 0.01 | 0.01 | 77 | 1005.9 |
| 20260506060539 | 58 | 173 | 0.9 | 3.5 | 0.00 | 0.01 | 0.01 | 77 | 1005.8 |
| 20260506051019 | 54 | 221 | 0.0 | 0.9 | 0.01 | 0.01 | 0.01 | 84 | 1005.6 |
| 20260506050600 | 54 | 216 | 0.9 | 2.6 | 0.01 | 0.01 | 0.01 | 84 | 1005.7 |
| 20260506045020 | 53 | 245 | 0.0 | 0.9 | 0.01 | 0.01 | 0.01 | 84 | 1005.5 |
| 20260506044540 | 53 | 0.0 | 0.0 | 0.01 | 0.01 | 0.01 | 84 | 1005.4 | |
| 20260506044017 | 53 | 296 | 0.0 | 0.9 | 0.01 | 0.01 | 0.01 | 84 | 1005.4 |
| 20260506043517 | 53 | 0.0 | 0.0 | 0.01 | 0.01 | 0.01 | 84 | 1005.3 | |
| 20260506043018 | 53 | 286 | 0.0 | 1.7 | 0.00 | 0.01 | 0.00 | 84 | 1005.2 |
| 20260506042518 | 53 | 292 | 0.0 | 1.7 | 0.00 | 0.01 | 0.00 | 84 | 1005.3 |
| 20260506042017 | 53 | 281 | 0.9 | 2.6 | 0.00 | 0.01 | 0.00 | 84 | 1005.2 |
| 20260506041518 | 52 | 240 | 0.0 | 0.9 | 0.00 | 0.01 | 0.00 | 84 | 1005.1 |
| 20260506041041 | 52 | 263 | 0.0 | 0.9 | 0.00 | 0.01 | 0.00 | 85 | 1005.2 |
| 20260506040521 | 52 | 256 | 0.9 | 2.6 | 0.00 | 0.01 | 0.00 | 85 | 1005.3 |
| 20260506040018 | 52 | 280 | 0.9 | 4.3 | 0.00 | 0.01 | 0.00 | 85 | 1005.3 |
| 20260506035519 | 52 | 266 | 0.9 | 3.5 | 0.00 | 0.01 | 0.00 | 86 | 1005.3 |
| 20260506035018 | 51 | 250 | 0.9 | 1.7 | 0.00 | 0.01 | 0.00 | 86 | 1005.3 |
| 20260506034539 | 51 | 210 | 0.9 | 3.5 | 0.00 | 0.01 | 0.00 | 86 | 1005.2 |
| 20260506034019 | 51 | 223 | 1.7 | 3.5 | 0.00 | 0.01 | 0.00 | 87 | 1005.1 |
| 20260506033519 | 51 | 214 | 0.9 | 2.6 | 0.00 | 0.01 | 0.00 | 87 | 1005.0 |
| 20260506033019 | 51 | 215 | 0.9 | 1.7 | 0.00 | 0.01 | 0.00 | 87 | 1004.8 |
| 20260506032539 | 51 | 203 | 0.9 | 0.9 | 0.00 | 0.01 | 0.00 | 87 | 1004.7 |
| 20260506032039 | 51 | 0.0 | 0.0 | 0.00 | 0.01 | 0.00 | 87 | 1004.6 | |
| 20260506031539 | 51 | 181 | 0.9 | 1.7 | 0.00 | 0.01 | 0.00 | 86 | 1004.7 |
| 20260506031019 | 51 | 183 | 0.9 | 1.7 | 0.00 | 0.01 | 0.00 | 86 | 1004.8 |
| 20260506030519 | 51 | 204 | 0.0 | 0.9 | 0.00 | 0.01 | 0.00 | 87 | 1004.7 |
| 20260506030019 | 51 | 192 | 0.9 | 1.7 | 0.00 | 0.01 | 0.00 | 87 | 1004.7 |
| 20260506025519 | 51 | 211 | 0.0 | 0.9 | 0.00 | 0.01 | 0.00 | 87 | 1004.6 |
| 20260506025019 | 51 | 174 | 0.9 | 1.7 | 0.00 | 0.01 | 0.00 | 87 | 1004.7 |
| 20260506024539 | 51 | 177 | 0.0 | 1.7 | 0.00 | 0.01 | 0.00 | 86 | 1004.9 |
| 20260506024019 | 52 | 0.0 | 0.0 | 0.00 | 0.01 | 0.00 | 86 | 1005.0 | |
| 20260506023520 | 52 | 219 | 0.0 | 0.9 | 0.00 | 0.01 | 0.00 | 86 | 1005.1 |
| 20260506023016 | 52 | 246 | 0.0 | 0.9 | 0.00 | 0.01 | 0.00 | 86 | 1005.2 |
| 20260506022537 | 52 | 235 | 0.9 | 1.7 | 0.00 | 0.01 | 0.00 | 86 | 1005.3 |
| 20260506022040 | 52 | 282 | 0.9 | 3.5 | 0.00 | 0.01 | 0.00 | 86 | 1005.4 |
| 20260506021520 | 52 | 295 | 0.9 | 3.5 | 0.00 | 0.01 | 0.00 | 86 | 1005.5 |
| 20260506021020 | 52 | 284 | 0.9 | 3.5 | 0.00 | 0.01 | 0.00 | 85 | 1005.3 |
| 20260506020521 | 52 | 209 | 0.0 | 0.9 | 0.00 | 0.01 | 0.00 | 85 | 1005.2 |
| 20260506020020 | 52 | 210 | 0.9 | 1.7 | 0.00 | 0.01 | 0.00 | 85 | 1005.3 |
| 20260506015520 | 53 | 276 | 0.9 | 2.6 | 0.00 | 0.01 | 0.00 | 85 | 1005.2 |
| 20260506015017 | 53 | 277 | 0.9 | 2.6 | 0.00 | 0.01 | 0.00 | 85 | 1005.3 |
| 20260506014518 | 53 | 279 | 0.9 | 2.6 | 0.00 | 0.01 | 0.00 | 85 | 1005.2 |
| 20260506014017 | 53 | 280 | 0.9 | 2.6 | 0.00 | 0.01 | 0.00 | 84 | 1005.3 |
| 20260506013537 | 53 | 282 | 0.9 | 3.5 | 0.00 | 0.01 | 0.00 | 84 | 1005.2 |
| 20260506013018 | 53 | 295 | 0.9 | 2.6 | 0.00 | 0.01 | 0.00 | 84 | 1005.2 |
| 20260506012517 | 53 | 286 | 0.9 | 1.7 | 0.00 | 0.01 | 0.00 | 84 | 1005.2 |
| 20260506012021 | 53 | 277 | 0.0 | 2.6 | 0.00 | 0.01 | 0.00 | 84 | 1005.3 |
| 20260506011518 | 53 | 260 | 0.0 | 2.6 | 0.00 | 0.01 | 0.00 | 84 | 1005.3 |
| 20260506011018 | 53 | 266 | 0.0 | 1.7 | 0.00 | 0.01 | 0.00 | 84 | 1005.3 |
| 20260506010518 | 53 | 280 | 0.0 | 2.6 | 0.00 | 0.01 | 0.00 | 83 | 1005.3 |
| 20260506010038 | 54 | 275 | 0.0 | 2.6 | 0.00 | 0.01 | 0.00 | 83 | 1005.3 |
| 20260506005518 | 54 | 262 | 0.0 | 0.9 | 0.00 | 0.01 | 0.00 | 83 | 1005.3 |
| 20260506005018 | 54 | 270 | 0.9 | 1.7 | 0.00 | 0.01 | 0.00 | 83 | 1005.2 |
| 20260506004517 | 54 | 267 | 0.9 | 2.6 | 0.00 | 0.01 | 0.00 | 83 | 1005.2 |
| 20260506004017 | 54 | 251 | 0.0 | 0.9 | 0.00 | 0.01 | 0.00 | 82 | 1005.2 |
| 20260506003518 | 54 | 234 | 0.0 | 0.9 | 0.00 | 0.01 | 0.00 | 82 | 1005.2 |
| 20260506003018 | 54 | 234 | 0.0 | 0.9 | 0.00 | 0.01 | 0.00 | 82 | 1005.2 |
| 20260506002518 | 54 | 290 | 0.0 | 1.7 | 0.00 | 0.01 | 0.00 | 82 | 1005.1 |
| 20260506002019 | 55 | 289 | 0.9 | 1.7 | 0.00 | 0.01 | 0.00 | 82 | 1005.1 |
| 20260506001519 | 55 | 286 | 0.9 | 1.7 | 0.00 | 0.01 | 0.00 | 81 | 1005.0 |
| 20260506001039 | 54 | 298 | 0.9 | 1.7 | 0.00 | 0.01 | 0.00 | 82 | 1005.1 |
| 20260506000518 | 54 | 307 | 0.0 | 1.7 | 0.00 | 0.01 | 0.00 | 82 | 1005.2 |
| 20260506000018 | 54 | 0.0 | 0.0 | 0.00 | 0.01 | 0.00 | 82 | 1005.3 | |
| 20260505235518 | 54 | 0.0 | 0.0 | 0.00 | 0.01 | 0.00 | 82 | 1005.2 | |
| 20260505235018 | 54 | 0.0 | 0.0 | 0.00 | 0.01 | 0.00 | 82 | 1005.2 | |
| 20260505234518 | 54 | 0.0 | 0.0 | 0.00 | 0.01 | 0.00 | 82 | 1005.2 | |
| 20260505234017 | 55 | 0.0 | 0.0 | 0.00 | 0.01 | 0.00 | 82 | 1005.2 | |
| 20260505233518 | 55 | 0.0 | 0.0 | 0.00 | 0.01 | 0.00 | 82 | 1005.2 | |
| 20260505233037 | 55 | 0.0 | 0.0 | 0.00 | 0.01 | 0.00 | 82 | 1005.2 | |
| 20260505232537 | 55 | 0.0 | 0.0 | 0.00 | 0.01 | 0.00 | 81 | 1005.3 | |
| 20260505232019 | 55 | 226 | 0.0 | 1.7 | 0.00 | 0.01 | 0.00 | 82 | 1005.3 |
| 20260505231519 | 55 | 0.0 | 0.0 | 0.00 | 0.01 | 0.00 | 81 | 1005.3 | |
| 20260505231019 | 55 | 0.0 | 0.0 | 0.00 | 0.01 | 0.00 | 81 | 1005.3 | |
| 20260505230519 | 55 | 0.0 | 0.0 | 0.00 | 0.01 | 0.00 | 81 | 1005.3 | |
| 20260505230019 | 55 | 0.0 | 0.0 | 0.00 | 0.01 | 0.00 | 81 | 1005.3 | |
| 20260505225517 | 56 | 0.0 | 0.0 | 0.00 | 0.01 | 0.00 | 81 | 1005.4 | |
| 20260505225017 | 56 | 0.0 | 0.0 | 0.00 | 0.01 | 0.00 | 80 | 1005.3 | |
| 20260505224517 | 56 | 0.0 | 0.0 | 0.00 | 0.01 | 0.00 | 80 | 1005.3 | |
| 20260505224017 | 57 | 0.0 | 0.0 | 0.00 | 0.01 | 0.00 | 80 | 1005.4 | |
| 20260505223519 | 57 | 184 | 0.0 | 0.9 | 0.00 | 0.01 | 0.00 | 79 | 1005.5 |
| 20260505223020 | 57 | 0.0 | 0.0 | 0.00 | 0.01 | 0.00 | 79 | 1005.5 | |
| 20260505222520 | 57 | 0.0 | 0.0 | 0.00 | 0.01 | 0.00 | 79 | 1005.6 |